058  
ASUS41 KBOX 291410  
RWRBOX  
 
REGIONAL WEATHER ROUNDUP  
NATIONAL WEATHER SERVICE TAUNTON MA  
1000 AM EDT WED MAR 29 2017  
 
NOTE: "FAIR" INDICATES FEW OR NO CLOUDS BELOW 12,000 FEET WITH NO  
SIGNIFICANT WEATHER AND/OR S TO VISIBILITY
.  
 
MAZALL-291500-  
EASTERN MASSACHUSETTS  
 
CITY SKY/WX TMP DP RH WIND PRES REMARKS
 
BOSTON CLOUDY 39 37 92 N13 30.03R WCI 31  
BEVERLY CLOUDY 40 38 93 N8 30.02R  
LAWRENCE CLOUDY 39 38 96 N8 30.05R  
BEDFORD CLOUDY 41 35 79 N10 30.02R HAZE  
BLUE HILL N/A 36 36 100 N12G18 29.99R WCI 28  
NORWOOD CLOUDY 41 38 89 N7 30.03R FOG  
MARSHFIELD CLOUDY 39 37 93 VRB6G16 30.00R  
PLYMOUTH CLOUDY 40 36 86 N10 29.99R  
TAUNTON CLOUDY 41 36 82 N12G20 30.01R  
NEW BEDFORD CLOUDY 41 37 86 N8G17 29.99R  

 
 
MAZALL-291500-  
CAPE COD AND THE ISLANDS  
 
CITY SKY/WX TMP DP RH WIND PRES REMARKS
 
FALMOUTH CLOUDY 39 37 93 MISG 29.98R  
HYANNIS CLOUDY 41 39 93 N18G25 29.94R  
CHATHAM CLOUDY 41 40 96 N9G20 29.95R FOG  
PROVINCETOWN CLOUDY 40 37 89 N15G21 29.99R WCI 32  
NANTUCKET CLOUDY 42 38 85 N22G29 29.93R  
MARTHAS VNYRD CLOUDY 42 38 85 N15 29.96R  

 
 
MAZALL-291500-  
CENTRAL AND WESTERN MASSACHUSETTS  
 
CITY SKY/WX TMP DP RH WIND PRES REMARKS
 
WORCESTER CLOUDY 39 30 70 NE10 30.00R  
FITCHBURG CLOUDY 43 32 65 N10 30.03R  
ORANGE CLOUDY 41 32 70 N12G23 30.04R  
SPRINGFIELD NOT AVBL  
WESTFIELD CLOUDY 45 33 63 N14 30.05R  
NORTH ADAMS PTSUNNY 40 33 76 VRB7 30.08R  
PITTSFIELD SUNNY 39 31 72 NW15G21 30.05R WCI 31  

 
 
RIZALL-291500-  
RHODE ISLAND  
 
CITY SKY/WX TMP DP RH WIND PRES REMARKS
 
PROVIDENCE LGT RAIN 42 37 82 N14 30.02R  
NEWPORT CLOUDY 41 39 93 N14 29.99R  
BLOCK ISLAND CLOUDY 42 38 85 N10G18 30.00R  
SMITHFIELD CLOUDY 39 38 96 N12G17 30.01R FOG WCI 32  
WESTERLY CLOUDY 44 39 82 N14G20 30.01R  

 
 
CTZALL-291500-  
CONNECTICUT  
 
CITY SKY/WX TMP DP RH WIND PRES REMARKS
 
BRADLEY INTL PTSUNNY 46 34 62 N20 30.06R  
HARTFORD PTSUNNY 45 34 65 N12 30.06R  
BRIDGEPORT MOSUNNY 50 34 54 N13G26 30.04R  
DANBURY CLOUDY 42 35 76 N9G18 30.07R  
GROTON CLOUDY 45 36 70 N16 30.01R  
NEW HAVEN MOSUNNY 47 35 63 N17G30 30.04R  
CHESTER NOT AVBL  
MERIDEN PTSUNNY 47 35 63 N12G22 30.05R  
WILLIMANTIC CLOUDY 46 34 62 N13 30.04R  
OXFORD PTSUNNY 43 30 61 N18G26 30.05R  

 
 
MEZ002-015-021-024-NHZ003-005-008-011-012-014-VTZ005-008-291500-  
NORTHERN NEW ENGLAND  
 
CITY SKY/WX TMP DP RH WIND PRES REMARKS
 
PORTLAND ME LGT RAIN 39 33 79 N9G21 30.02R  
BANGOR ME CLOUDY 35 32 88 N13 30.00F WCI 26  
CONCORD NH CLOUDY 41 35 79 NW6 30.03R  
MANCHESTER NH CLOUDY 41 32 70 NW7 30.02R  
NASHUA NH CLOUDY 41 33 73 NW9 30.04R  
PORTSMOUTH NH CLOUDY 40 36 87 NW10 30.02R  
JAFFREY NH CLOUDY 40 30 67 N8 30.02R  
KEENE NH CLOUDY 40 32 73 N18 30.05R WCI 31  
BURLINGTON VT CLOUDY 37 31 78 N3 30.14R  
MT. WASHINGTON FOG 16 16 100 NW36 N/A VSB 1/16WCI -6  

 
 
NYZ052-076-291500-  
EASTERN NEW YORK  
 
CITY SKY/WX TMP DP RH WIND PRES REMARKS
 
ALBANY DRIZZLE 39 35 86 NE7 30.13R  
NEW YORK CITY CLOUDY 48 37 65 N12 30.07R  

 
 
ANZALL-291500-  
MARINE OBSERVATIONS  
 
STATION/POSITION TIME TEMP WIND PRES VSBY WAVE
 
AIR SEA DIR/SP/G HT/PER  
(UTC) (F) (DEG/KT/KT) (MB) (MI) (FT/S)  
BOSTON BUOY 1250 38 40 360/ 14/ 16 1015.3 4/ 6  
BUZZARDS BAY 1300 39 10/ 17/ 19 1015.0R  
NANTUCKET SOUND 1350 39 1013.7R 2/ 4  
MASS BAY-STELLWA 1304 38 39 350/ 16/ 17 1014.4F 4/ 7  
ISLE OF SHOALS 1300 37 10/ 14/ 16 1015.7R  
S OF BLOCK IS 1355 40 N/A 4/ 5  

 
   
.....................KEY......................
 
 
SKY/WX - SKY CONDITION/PRESENT WEATHER  
TMP - TEMPERATURE IN FAHRENHEIT  
DWPT - DEWPOINT IN FAHRENHEIT  
RH - RELATIVE HUMIDITY IN PERCENT  
WIND - DIRECTION AND SPEED IN MPH  
PRES - MEAN SEA LEVEL PRESSURE IN INCHES OF HG  
WCI - WIND CHILL INDEX  
VSB - VISIBILITY IN MILES  
HX - HEAT INDEX  
TC - TEMPERATURE IN CELSIUS  
VRB - VARIABLE WIND DIRECTION  
N/A - NOT AVAILABLE  
 
 
CLICK HERE TO GO TO PREVIOUS BULLETINS.

The Nexlab MA Page
The Nexlab RI Page
The Nexlab NH Page
The Nexlab CT Page Main Text Page